Location: Holyhead Bay
(53.3667°N, 4.6667°W)
Time: 05:36:17
(UTC+00:00)

ADEOS Rocket - Pass Details

Date: 21 April 2021
Orbit: 859 x 1306 km, 98.7° (Epoch: 12 May)

Event Time Altitude Azimuth Distance (km) Brightness Sun altitude
Rises 23:50:03 0° 85° (E) 3,950 6.2 -24.2°
Reaches altitude 10° 23:53:59 10° 62° (ENE) 3,084 5.8 -24.2°
Maximum altitude 23:57:21 14° 34° (NNE) 2,848 6.0 -24.3°
Drops below altitude 10° 00:00:49 10° 5° (N) 3,220 6.7 -24.3°
Sets 00:05:05 0° 344° (NNW) 4,252 7.6 -24.4°
